Find OneWeb SL0119

NORAD ID: 47278 Int'l Des: 2020-100 Owner: ONEWEB Country: UK Constellation: oneweb operational
LEOCIRCULARPOLARONEWEB_TYPE

現在のビュー

3D地球を読み込み中...

About OneWeb SL0119

OneWeb SL0119 (NORAD 47278) is a oneweb constellation satellite launched Dec 18, 2020 by ONEWEB of UK. It operates in LEO, CIRCULAR, POLAR, ONEWEB_TYPE orbit with a mass of 148.00 kg.

OneWeb SL0119について

説明を読み込み中...

次回通過

Passes for default location (London). Set your location on the main map for personalized predictions.

高度履歴

Loading altitude history...

軌道要素

1 47278U 20100W 26171.41724331 .00000314 00000-0 83622-3 0 9995
2 47278 87.8940 350.0294 0001717 91.3231 268.8094 13.12442802265001
Epoch: Jun 20, 2026 • Age: 34 hours

現在のステータス

高度 1236.1 km
速度 7.24 km/s
衛星直下点 -54.83°S, 129.23°E
打ち上げ日 Dec 18, 2020
運用期間 5.5 years
タイプ internet

技術仕様

分類 Payload
質量 148.00 kg
乾燥質量 140.00 kg
総質量 148.00 kg
長さ 1.30 m
直径 1.00 m
スパン 5.00 m
形状 Trapezoid+2 pan
製造者 ONEWUS
バスタイプ ARROW
フェーズステータス In Orbit
所有者/国 ONEWEB/UK

Most Searched